Regional Weather Roundup
Issued by NWS

Home | Current Version | Previous Version | Text Only | Print | Product List | Glossary Off
Versions: 1 2 3 4 5 6 7 8 9 10 11 12 13 14 15 16 17 18 19 20 21 22 23 24 25 26 27 28 29 30 31 32 33 34 35 36 37 38 39 40 41 42 43 44 45 46 47 48 49 50

131
ASUS44 KLIX 222005
RWRLA
LOUISIANA WEATHER ROUNDUP
NATIONAL WEATHER SERVICE NEW ORLEANS LA
300 PM CDT TUE JUL 22 2014

NOTE: "FAIR" INDICATES FEW OR NO CLOUDS BELOW 12,000 FEET WITH NO
      SIGNIFICANT WEATHER AND/OR OBSTRUCTIONS TO VISIBILITY.
      SKY/WX - SKY CONDITION AND SIGNIFICANT WEATHER.
      TMP - AIR TEMPERATURE.    DP   - DEWPOINT TEMPERATURE.
      RH  - RELATIVE HUMIDITY.  PRES - PRESSURE.
      HX  - HEAT INDEX.         WCI  - WIND CHILL INDEX.

*  THESE STATIONS ARE NOT NWS OR FAA STATIONS AND ARE NOT UNDER
   NWS QUALITY CONTROL.

LAZ040-048-061>063-065-066-069-222100-
SOUTHEAST LOUISIANA

CITY           SKY/WX    TMP DP  RH WIND       PRES   REMARKS
N.O. AUDUBON     N/A     88  76  67 MISG        N/A  HX  98
N.O. INTL ARPT PTSUNNY   86  76  71 S7        30.00F HX  96
N.O. LAKEFRONT MOSUNNY   88  68  51 NW5       30.01F
N.O. DOWNTOWN* CLOUDY    88  70  55 CALM      30.01S
SLIDELL        MOSUNNY   88  70  55 SW6       29.99F
BATON ROUGE    MOSUNNY   90  68  48 NE6       30.01F
BOOTHVILLE     PTSUNNY   86  75  69 VRB3      30.00F HX  95
BELLE CHASSE   NOT AVBL
BOGALUSA*      FAIR      83  75  75 N6        30.03S
GALLIANO*      NOT AVBL
NEW ROADS*     FAIR      88  70  54 CALM      30.01F
GONZALES*      FAIR      89  70  52 NW3       30.00S
HAMMOND*       PTSUNNY   90  66  45 E3        30.02S
HOUMA*         PTSUNNY   84  70  61 SW13G23   30.02S
PORT FOURCHON* PTCLDY    86  77  74 VRB7      30.01F HX  97

$$

LAZ041-044-053-054-222100-
SOUTHWEST LOUISIANA

CITY           SKY/WX    TMP DP  RH WIND       PRES   REMARKS
LAKE CHARLES   PTSUNNY   89  74  60 NE7       30.02F HX  98
LAFAYETTE      MOSUNNY   89  69  51 NE8       30.01F
PATTERSON      MOSUNNY   81  70  69 SW9       30.05F
SALT POINT       N/A     90  78  68 VRB5      30.00F HX 104
NEW IBERIA     MOSUNNY   90  69  50 N10       30.01F
CHENAULT AIRPK MOSUNNY   90  72  55 N8        30.03F HX  96

$$

LAZ027-028-222100-
CENTRAL LOUISIANA

CITY           SKY/WX    TMP DP  RH WIND       PRES   REMARKS
FORT POLK      PTSUNNY   88  66  48 MISG      30.04F
ALEXANDRIA INT SUNNY     91  68  46 E5        30.02F HX  95
ALEXANDRIA     SUNNY     93  68  43 NE8       30.03F HX  97

$$

LAZ001-002-222100-
NORTHWEST LOUISIANA

CITY           SKY/WX    TMP DP  RH WIND       PRES   REMARKS
SHREVEPORT     MOSUNNY   91  68  46 E8        30.05F HX  95
BARKSDALE AFB  SUNNY     88  69  52 VRB5      30.06F
DTN SHREVEPORT MOSUNNY   89  66  46 SE5       30.06F

$$

LAZ014-016-222100-
NORTHEAST LOUISIANA

CITY           SKY/WX    TMP DP  RH WIND       PRES   REMARKS
MONROE         SUNNY     89  67  47 N3        30.06F
TALLULAH       SUNNY     91  72  53 VRB5      30.04F HX  98

$$




USA.gov is the U.S. government's official web portal to all federal, state and local government web resources and services.